Weather Roundup
Issued by NWS Chicago, IL

Home | Current Version | Previous Version | Graphics & Text | Print | Product List | Glossary On
Versions: 1 2 3 4 5 6 7 8 9 10 11 12 13 14 15 16 17 18 19 20 21 22 23 24 25 26 27 28 29 30 31 32 33 34 35 36 37 38 39 40 41 42 43 44 45 46 47 48 49 50
000
NZUS59 KLOT 041808
HRRLOT

CHICAGO AREA WEATHER ROUNDUP
NATIONAL WEATHER SERVICE CHICAGO/ROMEOVILLE IL
100 PM CDT SAT JUL 04 2015

NOTE: "FAIR" INDICATES FEW OR NO CLOUDS BELOW 12,000 FEET WITH NO
SIGNIFICANT WEATHER AND/OR OBSTRUCTIONS TO VISIBILITY.

* THESE STATIONS ARE NOT UNDER NWS QUALITY CONTROL. THEY ALSO MAY NOT
  REPORT WEATHER SUCH AS PRECIPITATION OR FOG.

ILZ005-006-012>014-019>023-041900-
NORTHEAST ILLINOIS

CITY           SKY/WX    TMP DP  RH WIND       PRES   REMARKS
OHARE          MOSUNNY   79  56  45 W7        30.00F HX  80
6HR MIN TEMP:  63; 6HR MAX TEMP:  80;

MIDWAY         MOSUNNY   80  55  42 S3        30.00F HX  80
6HR MIN TEMP:  65; 6HR MAX TEMP:  81;

AURORA         SUNNY     79  57  46 W6        30.02F HX  80
6HR MIN TEMP:  60; 6HR MAX TEMP:  79;

LANSING*       SUNNY     78  53  41 CALM      30.01S
JOLIET*        SUNNY     79  60  52 SW6       30.02S HX  80
WAUKEGAN       SUNNY     76  61  59 E8        30.00S
6HR MIN TEMP:  61; 6HR MAX TEMP:  77;

DUPAGE AIRPORT SUNNY     78  56  46 W8        30.01S
6HR MIN TEMP:  60; 6HR MAX TEMP:  78;

WHEELING       SUNNY     80  56  43 N5        30.01F HX  80
6HR MIN TEMP:  62; 6HR MAX TEMP:  80;

KANKAKEE*      PTSUNNY   80  63  54 SW6       30.03S HX  81
MORRIS*        SUNNY     77  57  49 CALM      30.01S
LEWIS AIRPORT* SUNNY     78  56  46 W6        30.02R
NORTHERLY IS     N/A     70  58  65 E6          N/A
$$

WIZ051-052-058>065-066-070>072-041900-
SOUTHEAST WISCONSIN

CITY           SKY/WX    TMP DP  RH WIND       PRES   REMARKS
MILWAUKEE      MOSUNNY   79  58  48 CALM      29.99S HX  80
6HR MIN TEMP:  65; 6HR MAX TEMP:  80;

KENOSHA*       MOSUNNY   78  60  53 S3        30.00F
RACINE*        SUNNY     79  60  52 SE10      30.01S HX  80
BURLINGTON     MOSUNNY   77  60  55 S3        30.00S
WAUKESHA       MOSUNNY   75  57  53 SW6       30.01S
WEST BEND      MOSUNNY   79  57  47 SE5       29.99S HX  80
$$

INZ001>003-010>013-019-020-041900-
NORTHWEST INDIANA

CITY           SKY/WX    TMP DP  RH WIND       PRES   REMARKS
GARY*          MOSUNNY  N/A N/A N/A NE9       30.02S
MICHIGAN CITY* NOT AVBL
RENSSELAER*    NOT AVBL
VALPARAISO     PTSUNNY   77  59  53 MISG      30.03S
$$

LMZ740>746-041900-
SOUTHERN LAKE MICHIGAN

STATION/POSITION TIME  SKY/WX   TEMP WIND        PRES    VSBY
                                AIR  DIR/SP/G
                 (UTC)          (F)  (DEG/KT/KT) (MB)    (MI)
HARRISON CRIB    1700            67   90/  7/  8   N/A
BURNHAM HARBOR   1800            70   70/  3/  5   N/A
CALUMET HARBOR   1700            70   50/  8/  9   N/A
BURNS HARBOR     1700            69  350/  3/  4 1017.3R
MICHIGAN CITY    1700            70  260/  4/  5   N/A
$$

ABBREVIATIONS USED IN REMARKS
   TC - TEMPERATURE IN CELSIUS
  WCI - WIND CHILL INDEX
   HX - HEAT INDEX
  VSB - VISIBILITY
$$



USA.gov is the U.S. government's official web portal to all federal, state and local government web resources and services.